Regional Weather Roundup
Issued by NWS

Home | Current Version | Previous Version | Graphics & Text | Print | Product List | Glossary On
Versions: 1 2 3 4 5 6 7 8 9 10 11 12 13 14 15 16 17 18 19 20 21 22 23 24 25 26 27 28 29 30 31 32 33 34 35 36 37 38 39 40 41 42 43 44 45 46 47 48 49 50
000
ASUS45 KSLC 251610
RWRUT

UTAH REGIONAL WEATHER ROUNDUP
NATIONAL WEATHER SERVICE SALT LAKE CITY UT
900 AM MST SAT FEB 25 2017

UTZ001>011-023>025-251700-

NORTHERN UTAH

CITY           SKY/WX    TMP DP  RH WIND       PRES   REMARKS
BRIGHAM CITY     N/A     26  20  76 N3        30.10R
HILL AFB       CLOUDY    20  11  68 E8        30.07R WCI  10
LOGAN          CLOUDY    20  15  81 CALM      30.08R
OGDEN          CLOUDY    21  13  71 S10       30.07R WCI  10
SALT LAKE CITY CLOUDY    25  16  68 SE8       30.09R WCI  16
TOOELE VALLEY  CLOUDY    27  19  74 S5        30.10R WCI  21
WENDOVER       PTSUNNY   25  14  63 CALM      30.09R
HEBER CITY     LGT SNOW   9   1  72 CALM      30.06S
WEST JORDAN    CLOUDY    27  22  82 SE8       30.09S WCI  18

$$

UTZ011>015-024>027-251700-

CENTRAL/NORTHEAST UTAH

CITY           SKY/WX    TMP DP  RH WIND       PRES   REMARKS
PROVO AIRPORT  CLOUDY    21  12  68 SE7       30.12R WCI  13
MOAB/CANYONLAN SUNNY     28  12  51 CALM      30.09S
DELTA          MOSUNNY   23  18  80 N5        30.08R WCI  17
PRICE          MOSUNNY   19  10  68 CALM      30.03S
RICHFIELD      CLOUDY    18  10  73 MISG      30.10S
ROOSEVELT      CLOUDY    18  12  79 CALM      30.10S
VERNAL         CLOUDY    14   7  73 CALM      30.07S

$$

UTZ013>016-019>022-027-251700-

SOUTHERN UTAH

CITY           SKY/WX    TMP DP  RH WIND       PRES   REMARKS
BRYCE CANYON   CLOUDY     6   0  76 CALM      30.01R
CEDAR CITY     PTSUNNY   21  12  68 CALM      30.03R
MILFORD        CLOUDY    20  14  77 CALM      30.06R
HANKSVILLE     SUNNY     25   9  50 CALM      30.13S
KANAB          SUNNY     30  10  43 N9        30.12S WCI  22
BLANDING       SUNNY     27   6  40 CALM      30.14F

$$

REGIONAL REPORTS     COLORADO/ARIZONA

CITY           SKY/WX    TMP DP  RH WIND       PRES   REMARKS
CRAIG, CO      CLOUDY    14   9  80 E3        30.02S
GRAND JUNCTION MOSUNNY   24  15  68 SE9       30.09S WCI  14
RIFLE, CO      CLOUDY    16  10  77 CALM      30.08F
MONTROSE, CO   SUNNY     22   9  57 S7        30.11S WCI  13
CORTEZ, CO     SUNNY     23  11  60 VRB3      30.08F
COLORADO CITY    N/A     32  18  55 CALM      30.10S
PAGE, AZ       SUNNY     34   8  33 CALM      30.09S
GRAND CANYON   SUNNY     28  14  55 VRB5      30.05S WCI  23
KINGMAN, AZ    SUNNY     43   5  20 SE7       30.08S
FLAGSTAFF, AZ  SUNNY     27  15  61 SW12      30.05S WCI  17

$$

REGIONAL REPORTS    NEVADA/IDAHO/WYOMING

CITY           SKY/WX    TMP DP  RH WIND       PRES   REMARKS
LAS VEGAS, NV  MOSUNNY   43  18  36 CALM      30.08R
ELY, NY        CLOUDY    14   8  77 SW3       30.03R
ELKO, NV       PTSUNNY   21  11  65 CALM      30.07R
POCATELLO, ID  MOSUNNY   13   6  74 SW6       30.06R WCI   4
BURLEY, ID     SUNNY     19  12  74 SW3       30.08R
FORT BRIDGER,    N/A     11   4  71 SW15      29.98R WCI  -5
EVANSTON, WY   CLOUDY     7   1  76 SW12      29.95R WCI  -8
ROCK SPRINGS,  CLOUDY    10   0  63 W5        29.94S WCI   2

$$



USA.gov is the U.S. government's official web portal to all federal, state and local government web resources and services.